Simultaneous Nadir Overpasses (SNOs) Predictions

Prediction of SNOs between LANDSAT-8 and TERRA Satellite Orbit:

Table of predicted SNOs for the next 14.0 days since TLE Epoch: 2/12/2024
Index Date (LANDSAT-8) Time (LANDSAT-8) Lat,Lon (LANDSAT-8) SZA (LANDSAT-8 ) Date (TERRA) Time (TERRA) Lat,Lon (TERRA) SZA (TERRA ) Distance(km) Time Diff (sec)
1 02/25/2024 10:23:03 -81.76, -84.33 83.96 02/25/2024 10:24:14 -81.76, -84.38 83.93 0.87 71
2 02/25/2024 11:12:29 81.76, 83.45 96.05 02/25/2024 11:13:34 81.75, 83.54 96.09 1.51 65
3 02/25/2024 12:01:56 -81.76,-109.06 83.99 02/25/2024 12:02:57 -81.76,-109.08 83.96 0.40 61
4 02/25/2024 12:51:22 81.76, 58.72 96.02 02/25/2024 12:52:17 81.75, 58.84 96.07 2.02 55
5 02/25/2024 13:40:48 -81.75,-133.38 83.97 02/25/2024 13:41:39 -81.75,-133.37 83.94 0.28 51
6 02/25/2024 14:30:15 81.76, 33.98 95.99 02/25/2024 14:31:00 81.75, 34.14 96.04 2.55 45
7 02/25/2024 15:19:40 -81.75,-158.11 83.99 02/25/2024 15:20:21 -81.75,-158.07 83.96 0.71 41
8 02/25/2024 16:09:07 81.76, 9.25 95.97 02/25/2024 16:09:42 81.75, 9.44 96.01 3.08 35
9 02/25/2024 16:58:33 -81.75, 177.15 84.02 02/25/2024 16:59:04 -81.75, 177.23 83.99 1.24 31
10 02/25/2024 17:47:59 81.75, -15.07 95.99 02/25/2024 17:48:25 81.75, -15.26 95.98 3.20 26
11 02/25/2024 18:37:26 -81.75, 152.42 84.05 02/25/2024 18:37:47 -81.75, 152.53 84.02 1.77 21
12 02/25/2024 19:26:51 81.74, -39.38 96.02 02/25/2024 19:27:07 81.74, -39.55 96.00 2.68 16
13 02/25/2024 20:16:18 -81.74, 128.10 84.02 02/25/2024 20:16:29 -81.74, 128.24 84.00 2.30 11
14 02/25/2024 21:05:44 81.74, -64.12 95.99 02/25/2024 21:05:50 81.74, -64.25 95.98 2.15 6
15 02/25/2024 21:55:11 -81.74, 103.37 84.05 02/25/2024 21:55:12 -81.74, 103.54 84.03 2.81 1
16 02/25/2024 22:44:37 81.74, -88.85 95.96 02/25/2024 22:44:33 81.74, -88.95 95.95 1.63 4
17 02/25/2024 23:34:04 -81.74, 78.63 84.07 02/25/2024 23:33:55 -81.74, 78.84 84.05 3.34 9
18 02/26/2024 00:23:30 81.74,-113.59 95.94 02/26/2024 00:23:16 81.74,-113.65 95.92 1.13 14
19 02/26/2024 01:12:56 -81.73, 54.31 84.05 02/26/2024 01:12:38 -81.74, 54.13 84.08 2.90 18
20 02/26/2024 02:02:22 81.73,-137.90 95.96 02/26/2024 02:01:58 81.73,-137.94 95.94 0.60 24
21 02/26/2024 02:51:49 -81.73, 29.58 84.08 02/26/2024 02:51:21 -81.74, 29.43 84.11 2.39 28
22 02/26/2024 03:41:15 81.73,-162.64 95.93 02/26/2024 03:40:41 81.73,-162.64 95.91 0.06 34



Historial Predications of SNOs between LANDSAT-8 and TERRA
